This is the latest recevied weather packets stored in our database for station/object K5KVN. If no packets are shown the sender has not sent any weather packets the latest 10 day(s).
| Time | Temp. | Humidity | Pressure | Rain* | Wind** | Luminosity | Snow |
|---|---|---|---|---|---|---|---|
| 1778171538 | 17.22° C | 50% | 1019.7 hPa | 0 mm | - | - | - |
| 1778170939 | 16.67° C | 58% | 1019.8 hPa | 0 mm | - | - | - |
| 1778170336 | 16.67° C | 51% | 1019.9 hPa | 0 mm | - | - | - |
| 1778169797 | 16.11° C | 51% | 1019.9 hPa | 0 mm | - | - | - |
| 1778169197 | 16.11° C | 54% | 1020.1 hPa | 0 mm | - | - | - |
| 1778168536 | 16.11° C | 56% | 1020 hPa | 0 mm | - | - | - |
| 1778167936 | 15.56° C | 55% | 1020 hPa | 0 mm | - | - | - |
| 1778167337 | 15.56° C | 62% | 1020 hPa | 0 mm | - | - | - |
| 1778166736 | 15° C | 57% | 1020 hPa | 0 mm | - | - | - |
| 1778166197 | 14.44° C | 58% | 1020.1 hPa | 0 mm | - | - | - |
| 1778165534 | 13.89° C | 61% | 1020.1 hPa | 0 mm | - | - | - |
| 1778164934 | 13.33° C | 64% | 1020.1 hPa | 0 mm | - | - | - |
| 1778164333 | 12.22° C | 70% | 1020 hPa | 0 mm | - | - | - |
| 1778163734 | 11.67° C | 73% | 1020 hPa | 0 mm | - | - | - |
| 1778163194 | 11.67° C | 75% | 1019.9 hPa | 0 mm | - | - | - |
| 1778162532 | 10.56° C | 80% | 1020 hPa | 0 mm | - | - | - |
| 1778161932 | 9.44° C | 91% | 1020 hPa | 0 mm | - | - | - |
| 1778161331 | 8.33° C | 95% | 1020.1 hPa | 0 mm | - | - | - |
| 1778160732 | 7.78° C | 96% | 1020.1 hPa | 0 mm | - | - | - |
| 1778160132 | 7.22° C | 96% | 1020.1 hPa | 0 mm | - | - | - |
| 1778159530 | 6.67° C | 96% | 1020.1 hPa | 0 mm | - | - | - |
| 1778158929 | 6.11° C | 96% | 1020 hPa | 0 mm | - | - | - |
| 1778158393 | 6.11° C | 96% | 1020 hPa | 0 mm | - | - | - |
| 1778157787 | 5.56° C | 96% | 1019.9 hPa | 0 mm | - | - | - |
| 1778157126 | 4.44° C | 95% | 1019.6 hPa | 0 mm | - | - | - |
* Rain latest hour (hover to see other rain measurements)
** Current wind speed in m/s (hover to see current wind gust speed)